04.05.2024;13:00;55
04.05.2024;12:00;54
04.05.2024;11:00;56
04.05.2024;10:00;57
04.05.2024;09:00;49
04.05.2024;08:00;36
04.05.2024;07:00;34
04.05.2024;06:00;39
04.05.2024;05:00;46
04.05.2024;04:00;44
04.05.2024;03:00;44
04.05.2024;02:00;43
04.05.2024;01:00;45
04.05.2024;00:00;51
03.05.2024;23:00;58
03.05.2024;22:00;59
03.05.2024;21:00;57
03.05.2024;20:00;60
03.05.2024;19:00;63
03.05.2024;18:00;67
03.05.2024;17:00;69
03.05.2024;16:00;70
03.05.2024;15:00;67
03.05.2024;14:00;62
03.05.2024;13:00;61
03.05.2024;12:00;61
03.05.2024;11:00;58
03.05.2024;10:00;56
03.05.2024;09:00;47
03.05.2024;08:00;43
03.05.2024;07:00;49
03.05.2024;06:00;48
03.05.2024;05:00;54
03.05.2024;04:00;65
03.05.2024;03:00;61
03.05.2024;02:00;63
03.05.2024;01:00;66
03.05.2024;00:00;75
02.05.2024;23:00;62
02.05.2024;22:00;74
02.05.2024;21:00;85
02.05.2024;20:00;81
02.05.2024;19:00;93
02.05.2024;18:00;91
02.05.2024;17:00;95
02.05.2024;16:00;97
02.05.2024;15:00;97
02.05.2024;14:00;97
